This demonstration page uses our WeatherBlox Daily Observations layout. Learn more.

Left ArrowRight Arrow

Hourly Observations for September 29, 2019

Temp ( °F °C ) Dew Point ( °F °C ) Humidity (%) Winds ( mph kmh ) Pressure ( in mb ) Visibility ( mi km ) Precip ( " mm )
12:53 am 00:53 Clear 73 22.8 69 20.6 87 87 NE 5 7 30.13 1020 10 16 0.00 0.00
1:53 am 01:53 Clear 73 22.8 69 20.6 87 87 NNE 3 6 30.13 1020 10 16 0.00 0.00
2:53 am 02:53 Clear 73 22.8 69 20.6 87 87 Calm 30.14 1021 10 16 0.00 0.00
3:53 am 03:53 Clear 72 22.2 69 20.6 91 91 Calm 30.14 1021 10 16 0.00 0.00
4:53 am 04:53 Clear 71 21.7 69 20.6 94 94 Calm 30.14 1021 10 16 0.00 0.00
5:53 am 05:53 Clear 70 21.1 68 20 93 93 Calm 30.16 1021 8 13 0.00 0.00
6:53 am 06:53 Clear 71 21.7 68 20 90 90 Calm 30.18 1022 10 16 0.00 0.00
7:53 am 07:53 Sunny with Mist and Fog 70 21.1 68 20 93 93 Calm 30.20 1023 6 10 0.00 0.00
8:53 am 08:53 Sunny 74 23.3 69 20.6 85 85 Calm 30.22 1023 10 16 0.00 0.00
9:53 am 09:53 Sunny 77 25 68 20 74 74 S 5 7 30.22 1024 10 16 0.00 0.00
10:53 am 10:53 Sunny 80 26.7 69 20.6 69 69 SSW 3 6 30.22 1023 10 16 0.00 0.00
11:53 am 11:53 Sunny 85 29.4 68 20 57 57 Calm 30.21 1023 10 16 0.00 0.00
1:53 pm 13:53 Sunny 90 32.2 66 18.9 45 45 S 6 9 30.16 1021 10 16 0.00 0.00
2:53 pm 14:53 Mostly Cloudy 91 32.8 65 18.3 42 42 S 5 7 30.14 1021 10 16 0.00 0.00
3:53 pm 15:53 Sunny 91 32.8 65 18.3 42 42 VRB 3 6 30.12 1020 10 16 0.00 0.00
4:53 pm 16:53 Sunny 92 33.3 64 17.8 40 40 undefined N/A 30.11 1020 10 16 0.00 0.00
5:53 pm 17:53 Sunny 91 32.8 64 17.8 41 41 SE 5 7 30.11 1020 10 16 0.00 0.00
6:53 pm 18:53 Sunny 90 32.2 64 17.8 42 42 S 3 6 30.11 1020 10 16 0.00 0.00
7:53 pm 19:53 Clear 87 30.6 65 18.3 48 48 S 5 7 30.11 1020 10 16 0.00 0.00
8:53 pm 20:53 Clear 80 26.7 68 20 67 67 Calm 30.13 1020 10 16 0.00 0.00
9:53 pm 21:53 Clear 76 24.4 69 20.6 79 79 Calm 30.14 1021 10 16 0.00 0.00
10:53 pm 22:53 Clear 74 23.3 69 20.6 85 85 Calm 30.15 1021 10 16 0.00 0.00
11:53 pm 23:53 Clear 74 23.3 68 20 82 82 Calm 30.15 1021 10 16 0.00 0.00

Powered by AerisWeather